TimePDT,TemperatureF,Dew PointF,Humidity,Sea Level PressureIn,VisibilityMPH,Wind Direction,Wind SpeedMPH,Gust SpeedMPH,PrecipitationIn,Events,Conditions,WindDirDegrees,DateUTC
12:56 AM,75.9,21.9,13,29.78,10.0,West,8.1,-,N/A,,Clear,260,2013-05-21 07:56:00
1:56 AM,73.9,21.9,14,29.78,10.0,WSW,10.4,-,N/A,,Clear,250,2013-05-21 08:56:00
2:56 AM,73.9,21.9,14,29.77,10.0,SSW,3.5,-,N/A,,Clear,210,2013-05-21 09:56:00
3:56 AM,70.0,21.0,16,29.77,10.0,Calm,Calm,-,N/A,,Clear,0,2013-05-21 10:56:00
4:56 AM,69.1,21.0,16,29.78,10.0,SW,4.6,-,N/A,,Clear,230,2013-05-21 11:56:00
5:56 AM,69.1,21.0,16,29.78,10.0,SSW,3.5,-,N/A,,Clear,210,2013-05-21 12:56:00
6:56 AM,75.0,23.0,14,29.79,10.0,Calm,Calm,-,N/A,,Clear,0,2013-05-21 13:56:00
7:56 AM,78.1,25.0,14,29.81,10.0,Calm,Calm,-,N/A,,Clear,0,2013-05-21 14:56:00
8:56 AM,82.9,24.1,12,29.80,10.0,Calm,Calm,-,N/A,,Clear,0,2013-05-21 15:56:00
9:56 AM,87.1,25.0,10,29.79,10.0,Variable,3.5,-,N/A,,Clear,0,2013-05-21 16:56:00
10:56 AM,91.0,27.0,10,29.78,10.0,Variable,6.9,-,N/A,,Clear,0,2013-05-21 17:56:00
11:56 AM,95.0,28.0,9,29.74,10.0,ESE,8.1,-,N/A,,Clear,120,2013-05-21 18:56:00
12:56 PM,96.1,24.1,8,29.72,10.0,South,10.4,-,N/A,,Clear,180,2013-05-21 19:56:00
1:56 PM,98.1,23.0,7,29.68,10.0,South,10.4,-,N/A,,Clear,180,2013-05-21 20:56:00
2:56 PM,100.0,23.0,6,29.65,10.0,SW,10.4,24.2,N/A,,Clear,220,2013-05-21 21:56:00
3:56 PM,100.9,14.0,4,29.62,10.0,West,15.0,26.5,N/A,,Clear,270,2013-05-21 22:56:00
4:56 PM,99.0,14.0,5,29.60,10.0,SW,9.2,20.7,N/A,,Clear,230,2013-05-21 23:56:00
5:56 PM,100.0,16.0,5,29.56,10.0,SSW,10.4,19.6,N/A,,Clear,200,2013-05-22 00:56:00
6:56 PM,99.0,19.9,6,29.55,10.0,WSW,12.7,-,N/A,,Clear,240,2013-05-22 01:56:00
7:56 PM,96.1,19.9,6,29.55,10.0,SSW,12.7,-,N/A,,Clear,200,2013-05-22 02:56:00
8:56 PM,93.0,21.0,7,29.55,10.0,SSW,11.5,-,N/A,,Clear,200,2013-05-22 03:56:00
9:56 PM,91.9,21.9,8,29.55,10.0,SSW,9.2,-,N/A,,Clear,210,2013-05-22 04:56:00
10:56 PM,91.0,28.0,10,29.54,10.0,SSW,13.8,-,N/A,,Clear,210,2013-05-22 05:56:00
11:56 PM,89.1,30.9,12,29.55,10.0,West,18.4,-,N/A,,Clear,260,2013-05-22 06:56:00